• In Germany
  • List of Countries
  • For 7 days
  • Water Temperature
  • Satellite Maps
  • Weather Map
  • Weather Widgets
  • user-avatar
    Login

    Hourly Weather Kormovoe

    Today, 18 July, Wednesday

    Time Temperature Precipitation Wind Pressure Humidity
    00:00 +25°C° 0 mm 5 mps 745 mmHg 65%
    01:00 +23°C° 0 mm 5 mps 745 mmHg 68%
    02:00 +22°C° 0 mm 5 mps 745 mmHg 71%
    03:00 +22°C° 0 mm 4 mps 745 mmHg 75%
    04:00 +22°C° 0 mm 4 mps 745 mmHg 75%
    05:00 +22°C° 0 mm 4 mps 746 mmHg 74%
    06:00 +22°C° 0 mm 5 mps 746 mmHg 74%
    07:00 +25°C° 0 mm 5 mps 746 mmHg 68%
    08:00 +26°C° 0 mm 5 mps 746 mmHg 62%
    09:00 +28°C° 0 mm 5 mps 746 mmHg 55%
    10:00 +29°C° 0 mm 5 mps 745 mmHg 50%
    11:00 +30°C° 0 mm 5 mps 745 mmHg 45%
    12:00 +33°C° 0 mm 5 mps 745 mmHg 40%
    13:00 +33°C° 0 mm 5 mps 745 mmHg 38%
    14:00 +34°C° 0 mm 5 mps 745 mmHg 35%
    15:00 +34°C° 0 mm 4 mps 744 mmHg 33%
    16:00 +34°C° 0 mm 4 mps 744 mmHg 34%
    17:00 +34°C° 0 mm 4 mps 744 mmHg 35%
    18:00 +34°C° 0 mm 3 mps 744 mmHg 36%
    19:00 +31°C° 0 mm 2 mps 744 mmHg 40%
    20:00 +30°C° 0 mm 2 mps 745 mmHg 44%
    21:00 +29°C° 0 mm 1 mps 745 mmHg 48%
    22:00 +28°C° 0.1 mm 1 mps 745 mmHg 50%
    23:00 +28°C° 0.1 mm 1 mps 745 mmHg 52%

    Tomorrow, 19 July, Thursday

    Time Temperature Precipitation Wind Pressure Humidity
    00:00 +27°C° 0.1 mm 1 mps 745 mmHg 54%
    01:00 +27°C° 0.1 mm 1 mps 745 mmHg 55%
    02:00 +27°C° 0.1 mm 1 mps 745 mmHg 57%
    03:00 +26°C° 0.1 mm 2 mps 745 mmHg 59%
    04:00 +26°C° 0.2 mm 2 mps 745 mmHg 61%
    05:00 +26°C° 0.2 mm 2 mps 745 mmHg 62%
    06:00 +26°C° 0.2 mm 2 mps 745 mmHg 63%
    07:00 +28°C° 0 mm 3 mps 745 mmHg 58%
    08:00 +29°C° 0 mm 3 mps 745 mmHg 52%
    09:00 +32°C° 0 mm 4 mps 745 mmHg 46%
    10:00 +33°C° 0 mm 4 mps 745 mmHg 43%
    11:00 +34°C° 0 mm 4 mps 745 mmHg 39%
    12:00 +35°C° 0 mm 4 mps 745 mmHg 36%
    13:00 +35°C° 0 mm 4 mps 745 mmHg 35%
    14:00 +35°C° 0 mm 3 mps 744 mmHg 35%
    15:00 +35°C° 0 mm 3 mps 744 mmHg 34%
    16:00 +35°C° 0 mm 3 mps 744 mmHg 35%
    17:00 +35°C° 0 mm 2 mps 744 mmHg 36%
    18:00 +35°C° 0 mm 2 mps 744 mmHg 36%
    19:00 +34°C° 0 mm 3 mps 744 mmHg 42%
    20:00 +31°C° 0 mm 3 mps 744 mmHg 47%
    21:00 +30°C° 0 mm 4 mps 744 mmHg 53%
    22:00 +29°C° 0.1 mm 4 mps 744 mmHg 56%
    23:00 +28°C° 0.1 mm 4 mps 744 mmHg 58%

    Day after tomorrow, 20 July, Friday

    Time Temperature Precipitation Wind Pressure Humidity
    00:00 +28°C° 0.1 mm 4 mps 744 mmHg 61%
    01:00 +27°C° 0.2 mm 3 mps 744 mmHg 63%
    02:00 +27°C° 0.2 mm 3 mps 744 mmHg 65%
    03:00 +26°C° 0.2 mm 3 mps 744 mmHg 67%
    04:00 +26°C° 0.1 mm 3 mps 744 mmHg 67%
    05:00 +26°C° 0.1 mm 2 mps 744 mmHg 67%
    06:00 +26°C° 0.1 mm 2 mps 744 mmHg 67%
    07:00 +28°C° 0 mm 3 mps 745 mmHg 61%
    08:00 +29°C° 0 mm 3 mps 745 mmHg 56%
    09:00 +30°C° 0 mm 3 mps 745 mmHg 50%
    10:00 +31°C° 0 mm 3 mps 745 mmHg 47%
    11:00 +32°C° 0 mm 2 mps 745 mmHg 43%
    12:00 +34°C° 0 mm 2 mps 745 mmHg 40%
    13:00 +34°C° 0 mm 2 mps 745 mmHg 37%
    14:00 +34°C° 0 mm 1 mps 745 mmHg 35%
    15:00 +35°C° 0 mm 1 mps 744 mmHg 33%
    16:00 +35°C° 0 mm 1 mps 744 mmHg 33%
    17:00 +35°C° 0 mm 1 mps 744 mmHg 32%
    18:00 +35°C° 0 mm 1 mps 744 mmHg 32%
    19:00 +33°C° 0.2 mm 1 mps 744 mmHg 36%
    20:00 +32°C° 0.2 mm 2 mps 745 mmHg 39%
    21:00 +31°C° 0.2 mm 2 mps 745 mmHg 43%
    22:00 +30°C° 0.2 mm 2 mps 745 mmHg 45%
    23:00 +29°C° 0.2 mm 2 mps 745 mmHg 48%

    21 July, Saturday

    Time Temperature Precipitation Wind Pressure Humidity
    00:00 +29°C° 0.2 mm 2 mps 745 mmHg 50%
    01:00 +28°C° 0.1 mm 2 mps 745 mmHg 53%
    02:00 +27°C° 0.1 mm 2 mps 745 mmHg 56%
    03:00 +27°C° 0.1 mm 2 mps 745 mmHg 58%
    04:00 +27°C° 0.1 mm 2 mps 745 mmHg 59%
    05:00 +27°C° 0.1 mm 2 mps 745 mmHg 59%
    06:00 +27°C° 0.1 mm 2 mps 745 mmHg 60%
    07:00 +29°C° 0 mm 2 mps 745 mmHg 55%
    08:00 +30°C° 0 mm 2 mps 746 mmHg 51%
    09:00 +31°C° 0 mm 2 mps 746 mmHg 46%
    10:00 +33°C° 0 mm 3 mps 746 mmHg 43%
    11:00 +34°C° 0 mm 3 mps 746 mmHg 39%
    12:00 +35°C° 0 mm 3 mps 746 mmHg 36%
    13:00 +36°C° 0 mm 3 mps 745 mmHg 34%
    14:00 +36°C° 0 mm 2 mps 745 mmHg 32%
    15:00 +37°C° 0 mm 2 mps 745 mmHg 30%
    16:00 +37°C° 0 mm 2 mps 745 mmHg 30%
    17:00 +36°C° 0 mm 2 mps 745 mmHg 31%
    18:00 +36°C° 0 mm 2 mps 745 mmHg 31%
    19:00 +35°C° 0.1 mm 2 mps 745 mmHg 34%
    20:00 +32°C° 0.1 mm 2 mps 745 mmHg 38%
    21:00 +31°C° 0.1 mm 2 mps 746 mmHg 41%
    22:00 +30°C° 0.1 mm 2 mps 746 mmHg 43%
    23:00 +30°C° 0.1 mm 2 mps 745 mmHg 45%

    22 July, Sunday

    Time Temperature Precipitation Wind Pressure Humidity
    00:00 +29°C° 0.1 mm 2 mps 745 mmHg 47%
    01:00 +29°C° 0 mm 2 mps 745 mmHg 49%
    02:00 +28°C° 0 mm 2 mps 745 mmHg 51%
    03:00 +28°C° 0 mm 2 mps 745 mmHg 53%
    04:00 +28°C° 0 mm 2 mps 746 mmHg 53%
    05:00 +28°C° 0 mm 2 mps 746 mmHg 53%
    06:00 +28°C° 0 mm 2 mps 746 mmHg 53%
    07:00 +30°C° 0 mm 2 mps 746 mmHg 48%
    08:00 +31°C° 0 mm 2 mps 746 mmHg 44%
    09:00 +34°C° 0 mm 2 mps 746 mmHg 39%
    10:00 +34°C° 0 mm 1 mps 746 mmHg 37%
    11:00 +35°C° 0 mm 1 mps 746 mmHg 34%
    12:00 +36°C° 0 mm 1 mps 745 mmHg 32%
    13:00 +36°C° 0 mm 1 mps 745 mmHg 31%
    14:00 +36°C° 0 mm 1 mps 745 mmHg 31%
    15:00 +36°C° 0 mm 1 mps 745 mmHg 30%
    16:00 +36°C° 0 mm 1 mps 745 mmHg 31%
    17:00 +35°C° 0 mm 1 mps 745 mmHg 32%
    18:00 +36°C° 0 mm 2 mps 745 mmHg 34%
    19:00 +35°C° 0 mm 2 mps 745 mmHg 36%
    20:00 +34°C° 0 mm 2 mps 745 mmHg 38%
    21:00 +32°C° 0 mm 2 mps 745 mmHg 40%
    22:00 +32°C° 0 mm 2 mps 745 mmHg 41%
    23:00 +31°C° 0 mm 2 mps 745 mmHg 42%

    23 July, Monday

    Time Temperature Precipitation Wind Pressure Humidity
    00:00 +31°C° 0 mm 2 mps 745 mmHg 44%
    01:00 +30°C° 0.5 mm 2 mps 745 mmHg 47%
    02:00 +29°C° 0.5 mm 2 mps 745 mmHg 50%
    03:00 +29°C° 0.5 mm 1 mps 745 mmHg 53%
    04:00 +29°C° 0.8 mm 1 mps 745 mmHg 56%
    05:00 +28°C° 0.8 mm 1 mps 745 mmHg 58%
    06:00 +28°C° 0.8 mm 1 mps 745 mmHg 60%
    07:00 +29°C° 0.1 mm 2 mps 745 mmHg 57%
    08:00 +30°C° 0.1 mm 2 mps 746 mmHg 54%
    09:00 +30°C° 0.1 mm 2 mps 746 mmHg 51%
    10:00 +32°C° 0 mm 2 mps 746 mmHg 47%
    11:00 +34°C° 0 mm 2 mps 745 mmHg 42%
    12:00 +35°C° 0 mm 2 mps 745 mmHg 38%
    13:00 +36°C° 0 mm 2 mps 745 mmHg 36%
    14:00 +36°C° 0 mm 2 mps 745 mmHg 35%
    15:00 +36°C° 0 mm 1 mps 744 mmHg 33%
    16:00 +35°C° 0.1 mm 1 mps 744 mmHg 36%
    17:00 +35°C° 0.1 mm 1 mps 744 mmHg 38%
    18:00 +34°C° 0.1 mm 1 mps 745 mmHg 41%
    19:00 +34°C° 0.9 mm 2 mps 745 mmHg 46%
    20:00 +31°C° 0.9 mm 2 mps 745 mmHg 50%
    21:00 +30°C° 0.9 mm 3 mps 745 mmHg 55%
    22:00 +29°C° 0.9 mm 3 mps 745 mmHg 58%
    23:00 +29°C° 0.9 mm 3 mps 745 mmHg 60%
    Show more